GW4997 Weather Reports


time (UTC)temp
F
wind
direction
speed
knots
gust
knots
rain 1hr
in
rain 24hr
in
rain mn
in
humidity
%
barometer
mb
20260506221530 71 222 1.7 3.5 0.00 0.01 0.01 72 1008.0
20260506220530 71 239 1.7 2.6 0.00 0.01 0.01 72 1007.9
20260506215531 71 241 0.9 2.6 0.00 0.01 0.01 71 1007.9
20260506214531 70 255 1.7 3.5 0.00 0.01 0.01 72 1007.8
20260506213522 70 227 2.6 5.2 0.00 0.01 0.01 72 1007.7
20260506212522 70 236 2.6 5.2 0.00 0.01 0.01 71 1007.7
20260506211531 70 223 2.6 3.5 0.00 0.01 0.01 72 1007.6
20260506210517 70 259 1.7 3.5 0.00 0.01 0.01 72 1007.5
20260506205537 69 238 0.9 2.6 0.00 0.01 0.01 73 1007.4
20260506204517 69 237 1.7 4.3 0.00 0.01 0.01 73 1007.3
20260506203539 69 220 2.6 4.3 0.00 0.01 0.01 73 1007.3
20260506202517 69 228 2.6 7.0 0.00 0.01 0.01 73 1007.4
20260506201517 69 247 2.6 4.3 0.00 0.01 0.01 73 1007.4
20260506200518 68 238 2.6 6.1 0.00 0.01 0.01 74 1007.6
20260506195519 68 244 1.7 3.5 0.00 0.01 0.01 75 1007.8
20260506194518 68 245 1.7 2.6 0.00 0.01 0.01 76 1007.9
20260506193519 67 248 1.7 3.5 0.00 0.01 0.01 76 1008.0
20260506192525 67 250 1.7 5.2 0.00 0.01 0.01 76 1008.0
20260506191538 67 236 2.6 3.5 0.00 0.01 0.01 76 1008.1
20260506190519 67 251 0.9 3.5 0.00 0.01 0.01 77 1008.1
20260506185519 67 229 2.6 4.3 0.00 0.01 0.01 77 1008.3
20260506184519 67 231 2.6 7.8 0.00 0.01 0.01 77 1008.4
20260506183519 67 222 1.7 6.1 0.00 0.01 0.01 77 1008.5
20260506182519 67 215 2.6 8.7 0.00 0.01 0.01 76 1008.5
20260506181519 67 250 2.6 4.3 0.00 0.01 0.01 75 1008.4
20260506180519 67 240 1.7 4.3 0.00 0.01 0.01 75 1008.6
20260506175517 68 229 2.6 5.2 0.00 0.01 0.01 74 1008.8
20260506174520 69 234 2.6 5.2 0.00 0.01 0.01 71 1008.8
20260506173520 69 235 2.6 6.1 0.01 0.01 0.01 70 1008.7
20260506172517 69 231 1.7 5.2 0.01 0.01 0.01 69 1008.9
20260506171518 70 257 3.5 8.7 0.01 0.01 0.01 68 1008.8
20260506170518 69 226 1.7 3.5 0.01 0.01 0.01 70 1008.8
20260506165521 69 248 2.6 4.3 0.01 0.01 0.01 71 1009.0
20260506164521 70 237 1.7 2.6 0.01 0.01 0.01 72 1009.3
20260506163521 70 223 1.7 3.5 0.00 0.00 0.00 67 1009.3
20260506162521 71 251 2.6 5.2 0.00 0.00 0.00 65 1009.7
20260506161522 71 228 1.7 3.5 0.00 0.00 0.00 65 1009.9
20260506160516 70 235 2.6 5.2 0.00 0.00 0.00 65 1009.9
20260506155522 70 249 2.6 3.5 0.00 0.00 0.00 64 1009.9
20260506154522 70 246 1.7 3.5 0.00 0.00 0.00 65 1009.9
20260506153523 70 237 2.6 5.2 0.00 0.00 0.00 64 1010.0
20260506152542 70 257 1.7 3.5 0.00 0.00 0.00 64 1010.0
20260506151522 71 197 1.7 3.5 0.00 0.00 0.00 63 1009.9
20260506150522 70 230 1.7 2.6 0.00 0.00 0.00 63 1010.1
20260506145523 69 236 2.6 4.3 0.00 0.00 0.00 63 1010.0
20260506144523 69 222 1.7 3.5 0.00 0.00 0.00 64 1010.1
20260506143517 69 243 2.6 4.3 0.00 0.00 0.00 63 1010.1
20260506142523 70 219 1.7 3.5 0.00 0.00 0.00 63 1010.2
20260506141523 70 229 2.6 4.3 0.00 0.00 0.00 62 1010.2
20260506140524 70 237 2.6 4.3 0.00 0.00 0.00 63 1010.0
20260506135518 69 208 1.7 4.3 0.00 0.00 0.00 64 1010.0
20260506134518 70 226 2.6 5.2 0.00 0.00 0.00 63 1010.0
20260506133518 70 205 2.6 4.3 0.00 0.00 0.00 63 1010.0
20260506132538 71 220 2.6 7.8 0.00 0.00 0.00 62 1010.3
20260506131518 71 223 2.6 5.2 0.00 0.00 0.00 62 1010.5
20260506130525 70 251 2.6 4.3 0.00 0.00 0.00 63 1010.6
20260506125519 69 223 1.7 5.2 0.00 0.00 0.00 65 1010.6
20260506124524 68 220 1.7 4.3 0.00 0.00 0.00 66 1010.5
20260506123519 68 209 2.6 7.0 0.00 0.00 0.00 66 1010.5
20260506122519 67 235 2.6 5.2 0.00 0.00 0.00 68 1010.7
20260506121525 66 234 1.7 3.5 0.00 0.00 0.00 70 1010.6
20260506120546 66 253 0.9 3.5 0.00 0.00 0.00 70 1010.6
20260506115526 65 214 1.7 3.5 0.00 0.00 0.00 72 1010.7
20260506114520 65 208 1.7 5.2 0.00 0.00 0.00 73 1010.7
20260506113527 65 211 2.6 4.3 0.00 0.00 0.00 74 1010.7
20260506112526 64 201 1.7 3.5 0.00 0.00 0.00 75 1010.9
20260506111527 63 209 1.7 3.5 0.00 0.00 0.00 75 1010.9
20260506110526 63 223 1.7 3.5 0.00 0.00 0.00 76 1010.8
20260506105547 63 217 1.7 3.5 0.00 0.00 0.00 77 1010.7
20260506104548 62 216 0.9 2.6 0.00 0.00 0.00 78 1010.8
20260506103527 62 214 1.7 3.5 0.00 0.00 0.00 78 1010.9
20260506102528 62 210 1.7 2.6 0.00 0.00 0.00 79 1010.8
20260506101527 62 208 0.9 1.7 0.00 0.00 0.00 80 1010.7
20260506100527 62 205 1.7 2.6 0.00 0.00 0.00 79 1010.6
20260506095528 62 193 1.7 3.5 0.00 0.00 0.00 79 1010.6
20260506094528 63 195 0.9 2.6 0.00 0.00 0.00 79 1010.5
20260506093528 62 209 1.7 2.6 0.00 0.00 0.00 80 1010.5
20260506092529 63 181 1.7 2.6 0.00 0.00 0.00 80 1010.5
20260506091528 63 203 1.7 3.5 0.00 0.00 0.00 80 1010.6
20260506090529 63 206 0.9 1.7 0.00 0.00 0.00 80 1010.6
20260506085538 63 186 1.7 4.3 0.00 0.01 0.00 80 1010.7
20260506084518 63 203 1.7 5.2 0.00 0.01 0.00 80 1010.7
20260506083518 63 205 1.7 2.6 0.00 0.01 0.00 80 1010.8
20260506082538 63 194 1.7 4.3 0.00 0.01 0.00 80 1010.9
20260506081515 63 208 1.7 3.5 0.00 0.01 0.00 80 1010.8
20260506080515 63 204 1.7 3.5 0.00 0.01 0.00 80 1010.8
20260506073520 64 212 1.7 4.3 0.00 0.01 0.00 79 1010.7
20260506072520 64 190 0.9 3.5 0.00 0.01 0.00 79 1010.8
20260506071600 64 196 1.7 3.5 0.00 0.01 0.00 79 1010.9
20260506070520 64 209 0.9 3.5 0.00 0.01 0.00 78 1010.9
20260506061518 65 203 0.9 5.2 0.00 0.01 0.00 76 1010.9
20260506060518 65 188 0.9 5.2 0.00 0.01 0.00 76 1011.0
20260506050519 66 205 0.9 5.2 0.00 0.01 0.00 74 1011.2
20260506044519 67 207 1.7 4.3 0.00 0.01 0.00 73 1011.4
20260506043543 66 223 1.7 4.3 0.00 0.01 0.00 73 1011.4
20260506042520 67 227 0.9 3.5 0.00 0.01 0.00 73 1011.3
20260506041520 67 203 1.7 5.2 0.00 0.01 0.00 72 1011.2
20260506040517 67 223 1.7 5.2 0.00 0.01 0.00 72 1011.2
20260506035523 67 221 0.9 3.5 0.00 0.01 0.01 72 1011.2
20260506034520 67 187 0.9 3.5 0.00 0.01 0.01 71 1011.2
20260506033537 67 189 0.9 4.3 0.00 0.01 0.01 71 1011.3
20260506032518 67 219 1.7 4.3 0.00 0.01 0.01 71 1011.2
20260506031518 67 198 0.9 3.5 0.00 0.01 0.01 71 1011.2
20260506030521 66 188 1.7 5.2 0.00 0.01 0.01 71 1011.3
20260506025518 66 197 0.9 2.6 0.00 0.01 0.01 71 1011.3
20260506024519 66 187 1.7 3.5 0.00 0.01 0.01 71 1011.3
20260506023519 67 191 0.9 2.6 0.00 0.01 0.01 70 1011.3
20260506022519 67 173 0.9 1.7 0.00 0.01 0.01 69 1011.3
20260506021539 67 177 1.7 4.3 0.00 0.01 0.01 67 1011.3
20260506020519 68 229 0.9 2.6 0.00 0.01 0.01 66 1011.3
20260506015520 68 177 0.9 4.3 0.00 0.01 0.01 65 1011.2
20260506014520 68 178 1.7 4.3 0.00 0.01 0.01 64 1011.1
20260506013520 69 177 0.9 3.5 0.00 0.01 0.01 63 1011.0
20260506012537 69 220 1.7 4.3 0.00 0.01 0.01 62 1010.9
20260506011520 69 201 1.7 3.5 0.00 0.01 0.01 61 1010.8
20260506010518 70 208 0.9 3.5 0.00 0.01 0.01 61 1010.8
20260506005518 70 159 0.9 2.6 0.00 0.01 0.01 59 1010.6
20260506004518 71 181 0.9 2.6 0.00 0.01 0.01 58 1010.3
20260506003518 71 182 1.7 4.3 0.00 0.01 0.01 58 1010.2
20260506002518 72 215 0.9 3.5 0.00 0.01 0.01 57 1010.1
20260506001515 72 203 1.7 4.3 0.00 0.01 0.01 56 1010.1
20260506000516 72 223 0.9 2.6 0.00 0.01 0.01 56 1010.1